Bloomington, IL

8:04 AM CDT on September 21, 2017 (GMT -0500)
Central Ill Regional

Weather History for KBMI - January, 2012

Change the Weather History Date:

Monday, January 9, 2012

  Actual Average Record
Temperature  
Mean Temperature 35 °F -  
Max Temperature 45 °F 14 °F 50 °F (2002)
Min Temperature 25 °F -4 °F -6 °F (1976)
Degree Days  
Heating Degree Days 30    
Moisture  
Dew Point 26 °F    
Average Humidity 70    
Maximum Humidity 96    
Minimum Humidity 48    
Precipitation  
Precipitation 0.00 in - - ()
Sea Level Pressure  
Sea Level Pressure 30.19 in    
Wind  
Wind Speed 8 mph (SW)    
Max Wind Speed 17 mph    
Max Gust Speed -    
Visibility 10 miles    
Events      
Averages and records for this station are not official NWS values.
T = Trace of Precipitation, MM = Missing Value Source: NWS Daily Summary

Daily Weather History Graph

Daily Weather History Graph

Search for Another Location

Airport or City:

Trip Planner

Search our weather history database for the weather conditions in past years. The results will help you decide how hot, cold, wet, or windy it might be!

Date:

Astronomy

Jan. 09, 2012 Rise Set
Actual Time 7:18 AM CST 4:46 PM CST
Civil Twilight 6:48 AM CST 5:17 PM CST
Nautical Twilight 6:14 AM CST 5:51 PM CST
Astronomical Twilight 5:41 AM CST 6:23 PM CST
Moon 5:33 PM CST (1/9) 7:18 AM CST (1/9)
Length of Visible Light 10h 28m
Length of Day
9h 27m
Full, 100% of the Moon is Illuminated
Jan 9
Full
Jan 16
Last Quarter
Jan 23
New
Jan 30
First Quarter
Feb 7
Full

Hourly Weather History & Observations

Time (CST) Temp. Windchill Dew Point Humidity Pressure Visibility Wind Dir Wind Speed Gust Speed Precip Events Conditions
12:56 AM 28.0 °F - 27.1 °F 96% 30.32 in 10.0 mi Calm Calm - N/A   Clear
1:56 AM 28.0 °F 21.7 °F 26.1 °F 92% 30.31 in 10.0 mi SE 5.8 mph - N/A   Clear
2:56 AM 27.1 °F 20.7 °F 26.1 °F 96% 30.28 in 10.0 mi SSE 5.8 mph - N/A   Clear
3:56 AM 26.1 °F 21.9 °F 25.2 °F 96% 30.28 in 10.0 mi South 3.5 mph - N/A   Clear
4:56 AM 25.2 °F 19.5 °F 23.0 °F 91% 30.27 in 10.0 mi South 4.6 mph - N/A   Clear
6:56 AM 26.1 °F 19.4 °F 24.1 °F 92% 30.25 in 10.0 mi SW 5.8 mph - N/A   Clear
7:56 AM 26.1 °F 18.4 °F 24.1 °F 92% 30.26 in 10.0 mi SW 6.9 mph - N/A   Clear
8:56 AM 32.9 °F 25.3 °F 27.1 °F 79% 30.25 in 10.0 mi SW 9.2 mph - N/A   Clear
10:56 AM 38.8 °F 30.8 °F 26.1 °F 60% 30.22 in 10.0 mi WSW 13.8 mph - N/A   Clear
11:56 AM 41.9 °F 34.6 °F 27.1 °F 56% 30.18 in 10.0 mi WSW 13.8 mph - N/A   Clear
12:56 PM 43.9 °F 36.8 °F 27.1 °F 52% 30.14 in 10.0 mi WSW 15.0 mph - N/A   Clear
1:56 PM 45.0 °F 37.6 °F 27.1 °F 50% 30.11 in 10.0 mi WSW 17.3 mph - N/A   Clear
2:56 PM 45.0 °F 38.2 °F 26.1 °F 48% 30.10 in 10.0 mi SW 15.0 mph - N/A   Clear
3:56 PM 45.0 °F 38.9 °F 26.1 °F 48% 30.10 in 10.0 mi SW 12.7 mph - N/A   Clear
4:56 PM 41.0 °F 34.3 °F 26.1 °F 55% 30.13 in 10.0 mi SW 11.5 mph - N/A   Clear
5:56 PM 39.9 °F 31.8 °F 26.1 °F 58% 30.13 in 10.0 mi SW 15.0 mph - N/A   Clear
6:56 PM 38.8 °F 30.0 °F 25.2 °F 58% 30.13 in 10.0 mi SW 16.1 mph - N/A   Clear
7:56 PM 37.9 °F 29.6 °F 25.2 °F 60% 30.13 in 10.0 mi WSW 13.8 mph - N/A   Clear
8:56 PM 37.9 °F 29.6 °F 25.2 °F 60% 30.12 in 10.0 mi WSW 13.8 mph - N/A   Clear
10:56 PM 36.9 °F 28.2 °F 26.1 °F 65% 30.11 in 10.0 mi West 13.8 mph - N/A   Clear